Location: Wildlife_Club
(35.6000°N, 81.4330°W)
Time: 18:58:20
(UTC-04:00)

A-11 Canister half - Pass Details

Date: 28 June 2019
Orbit: 1514 x 1685 km, 47.2° (Epoch: 19 July)

Event Time Altitude Azimuth Distance (km) Brightness Sun altitude
Rises 06:57:47 0° 172° (S) 4,922 11.5 7.4°
Reaches altitude 10° 07:03:09 10° 150° (SSE) 3,939 11.3 8.4°
Maximum altitude 07:07:44 14° 122° (ESE) 3,616 11.6 9.3°
Drops below altitude 10° 07:12:17 10° 94° (E) 3,923 12.5 10.1°
Sets 07:17:32 0° 72° (ENE) 4,890 13.9 11.1°
